Location: Huinen
(52.2297°N, 5.5943°E)
Time: 10:15:08
(UTC+00:00)

Daily predictions for brighter satellites

Satellite Brightness Start Highest point End
(mag) Time Altitude Azimuth Time Altitude Azimuth Time Altitude Azimuth
Cosmos 2082 4.1 20:39:27 10° SW 20:45:03 71° WNW 20:50:41 10° NNE
Okean 3 Rocket 3.7 20:41:30 10° N 20:45:59 68° ENE 20:50:22 10° SSE
Cosmos 2227 4.3 20:40:30 10° SSW 20:46:10 64° ESE 20:51:52 10° NE
Cosmos 724 4.4 20:40:44 10° NW 20:46:35 81° NE 20:52:23 10° SE
Helios 1A Rocket 3.5 20:45:09 10° N 20:48:09 43° WNW 20:51:08 10° SW
Meteor 2-20 Rocket 4.4 20:42:49 10° S 20:48:39 89° E 20:54:44 10° N
CZ-4 R/B 4.0 20:46:45 10° WSW 20:48:46 14° W 20:50:48 10° NW
Cosmos 2263 Rocket 3.9 20:44:08 10° WSW 20:49:18 38° NW 20:54:31 10° NNE
Ariane Rocket 3.1 20:44:56 10° SSE 20:49:59 70° ENE 20:55:04 10° NNW
IRS-1C Rocket 4.2 20:45:19 10° SSE 20:50:32 71° ENE 20:55:48 10° NNW
Okean-O 3.4 20:46:55 10° S 20:51:09 49° W 20:55:26 10° NNW
Cosmos 1805 Rocket 3.9 20:48:01 10° N 20:52:14 51° ENE 20:56:27 10° SSE
Spot 2 Rocket 4.4 20:48:11 10° S 20:53:04 47° W 20:57:59 10° NNW
Cosmos 1340 Rocket 2.6 20:51:53 10° N 20:55:40 80° ENE 20:59:24 10° SSE
Cosmos 1408 Rocket 3.8 20:52:04 10° N 20:56:25 56° ENE 21:00:45 10° SSE
NOSS 3-2 (A) 3.3 20:51:54 10° SSW 20:56:48 54° SE 21:02:43 10° NE
Cosmos 1603 3.9 20:51:52 10° NW 20:57:37 71° WSW 21:03:16 10° SSE
USA 215 3.3 20:51:49 10° ESE 20:58:22 88° NNE 21:04:57 10° WNW
Cosmos 1842 Rocket 3.7 20:54:21 10° SSW 20:58:48 85° W 21:03:16 10° N
Cosmos 773 Rocket 4.2 20:56:09 10° SSW 21:01:17 78° WNW 21:06:30 10° NNE
Cosmos 1743 Rocket 4.2 20:59:38 10° N 21:03:45 41° ENE 21:07:49 10° SE
Cosmos 1703 4.2 21:04:34 11° SE 21:07:00 22° E 21:09:33 10° NE
Meteor 2-10 Rocket 4.5 21:01:45 10° NNW 21:07:25 53° W 21:12:57 10° S
USA 245 3.3 21:03:56 10° S 21:07:36 59° WSW 21:10:39 10° NNW
Cosmos 1844 Rocket 2.7 21:02:59 10° SSW 21:08:34 87° ESE 21:14:11 10° NNE
SL-14 R/B 3.2 21:07:53 10° SSW 21:11:36 82° W 21:15:21 10° N
CZ-4C R/B 4.0 21:07:33 10° NW 21:13:57 38° WSW 21:21:38 10° S
Cosmos 1553 Rocket 4.2 21:08:24 10° S 21:14:39 61° E 21:20:51 10° NNE
Cosmos 1833 Rocket 3.2 21:11:50 10° NNW 21:17:23 54° NE 21:22:54 10° SE
Cosmos 1151 Rocket 3.1 21:15:04 10° S 21:19:21 65° E 21:23:39 10° NNE
Cosmos 2082 Rocket 4.2 21:17:53 10° NNW 21:22:11 22° NNE 21:26:28 10° E
CZ-2C R/B 1.8 21:23:48 14° SSE 21:26:03 85° ENE 21:28:49 10° NNW
Cosmos 1953 2.8 21:23:24 10° N 21:26:48 38° ENE 21:29:35 14° SE
SL-24 R/B - RUBIN 2 3.6 21:24:36 10° SW 21:29:05 83° NW 21:33:28 10° NE
Cosmos 1844 4.0 21:23:58 10° SW 21:29:46 76° WNW 21:35:36 10° NNE
CZ-4B R/B 3.9 21:25:02 10° S 21:30:03 61° WSW 21:35:13 10° NNW
Cosmos 2278 Rocket 4.3 21:30:00 10° ESE 21:30:47 10° E 21:31:35 10° E
Okean O Rocket 3.7 21:27:25 10° SW 21:30:49 22° W 21:34:16 10° NW
Cosmos 1633 Rocket 4.0 21:30:35 10° N 21:34:38 36° ENE 21:38:07 13° SE
NOSS 3-2 (C) 3.5 21:33:29 10° SSW 21:38:15 44° ESE 21:43:55 10° NE
Cosmos 1461 4.1 21:39:46 10° WNW 21:42:38 23° WSW 21:45:06 12° S
NOSS 2-3 (C) 4.3 21:42:37 16° SSE 21:44:11 22° ESE 21:47:00 10° ENE
Cosmos 1745 Rocket 4.1 21:39:18 10° N 21:45:35 74° ENE 21:51:04 14° SSE
CZ-4B R/B 4.4 21:43:15 10° SSW 21:46:39 29° W 21:50:10 10° NNW
Cosmos 1500 Rocket 4.3 21:48:37 10° NNW 21:52:47 46° W 21:56:47 11° SSW
Helios 1A 3.5 21:51:09 10° NNE 21:54:52 39° E 21:57:27 18° SSE
Cosmos 2344 4.0 21:49:40 10° S 21:56:43 37° ESE 22:03:12 10° NE
GP-B 3.4 21:52:52 10° N 21:57:13 64° W 22:01:23 11° SSW
Helios 1B rocket 2.9 21:57:41 16° SE 22:00:04 38° ENE 22:03:19 10° N
Iridium 4 Rocket 3.6 21:55:05 11° S 22:00:17 83° W 22:05:20 10° N
ARIANE 5 R/B 3.7 21:59:12 13° SE 22:02:43 36° ENE 22:06:46 10° N
SWARM A 4.1 22:00:18 10° N 22:03:32 84° W 22:05:44 19° S
Cosmos 1470 Rocket 4.1 22:02:12 10° N 22:06:32 49° ENE 22:09:41 17° SE
Okean 2 4.5 22:07:04 17° SE 22:09:07 27° E 22:12:25 10° NNE
Cosmos 1420 Rocket 4.0 22:03:55 10° NNW 22:09:10 77° ENE 22:13:10 17° SSE
NOSS 2-3 (D) 3.2 22:07:39 10° SSW 22:11:17 59° SE 22:15:06 10° NE
ALOS 2 3.5 22:11:55 15° SE 22:15:12 39° ENE 22:19:19 10° N
Cosmos 1538 Rocket 3.9 22:11:36 10° SSW 22:16:41 78° ESE 22:21:56 10° NNE
Cosmos 2315 Rocket 4.1 22:13:37 16° S 22:18:42 67° E 22:24:52 10° NNE
Cosmos 1943 Rocket 3.1 22:16:33 18° SSE 22:19:52 31° ESE 22:24:45 10° NE
CENTAUR R/B 4.1 22:14:29 10° W 22:20:26 42° NNW 22:27:53 10° NE
Meteor 1-21 4.4 22:18:13 17° S 22:22:25 59° E 22:27:59 10° NNE
Cosmos 923 Rocket 4.5 22:21:16 18° S 22:24:46 44° ESE 22:29:43 10° NE
CZ-2C R/B 4.2 22:22:17 10° NNE 22:26:49 46° E 22:29:46 20° SSE
Cosmos 1328 Rocket 3.5 22:24:40 18° S 22:27:56 87° E 22:32:18 10° NNE
Lacrosse 5 rocket 1.8 22:30:45 25° SSE 22:31:45 29° SE 22:34:50 10° ENE
Cosmos 1666 Rocket 4.0 22:30:16 10° NNW 22:34:32 54° W 22:37:29 19° SSW
CZ-2C R/B 3.9 22:31:43 10° ESE 22:36:15 32° ENE 22:40:52 10° N
USA 81 4.4 22:32:02 10° N 22:37:14 56° ENE 22:40:53 19° SSE
NOSS 2-3 (E) 3.2 22:35:13 10° SW 22:38:52 81° NW 22:42:49 10° NE
Cosmos 1371 Rocket 4.1 22:34:29 10° NNW 22:39:47 73° ENE 22:43:38 18° SE
USA 215 3.8 22:37:29 18° SSE 22:41:51 40° SW 22:47:57 10° WNW
PSLV R/B 4.4 22:37:43 10° NNE 22:42:06 40° E 22:44:44 21° SSE
Cosmos 1869 Rocket 4.4 22:41:50 10° N 22:45:55 40° ENE 22:48:44 18° SE
NOSS 3-2 (A) 4.5 22:42:31 10° WSW 22:47:42 46° NNW 22:54:03 10° NE
GEOS 3 Rocket 3.8 22:45:16 19° SSE 22:49:02 60° SW 22:54:23 10° NW
S3M 4.4 22:48:41 12° SSW 22:54:18 61° WNW 23:00:25 10° N
NOSS 2-1 (D) 4.4 22:55:58 21° SE 22:56:10 21° SE 22:58:39 10° ENE
MetOp-A 4.2 22:53:36 17° SE 22:56:14 40° ENE 22:59:51 10° N
Cosmos 2154 Rocket 4.3 22:51:04 10° N 22:57:12 60° ENE 23:01:51 18° SSE
Cosmos 2184 Rocket 4.2 22:52:01 10° N 22:58:14 65° ENE 23:02:54 19° SSE
Cosmos 1515 Rocket 3.5 22:55:38 23° S 22:58:17 75° E 23:02:37 10° NNE
ARGOS Delta rocket 4.1 22:52:54 10° N 22:58:20 82° WNW 23:02:18 18° SSW
CSL-04 DEB 4.3 22:57:32 26° S 22:59:28 63° WSW 23:03:07 10° NNW
Cosmos 1833 Rocket 3.7 22:56:05 10° NW 23:01:05 33° WSW 23:04:36 17° SSW
Cosmos 1953 4.2 22:58:53 10° NW 23:01:26 19° W 23:03:47 11° SW
USA 59 Rocket 0.4 23:01:29 26° SE 23:01:56 27° SE 23:04:35 10° ENE
Spot 4 3.9 22:59:30 22° S 23:02:35 70° WSW 23:07:26 10° NNW
Cosmos 2082 Rocket 2.3 23:01:36 10° NNW 23:07:16 73° ENE 23:11:52 16° SE
SAR-Lupe-2 3.5 23:05:49 27° SE 23:07:23 61° ENE 23:10:35 10° N
Okean 3 3.4 23:09:18 26° S 23:11:23 66° E 23:15:22 10° NNE
Cosmos 1633 Rocket 4.5 23:08:23 10° NNW 23:12:11 29° W 23:15:02 15° SW
Cosmos 2278 Rocket 2.4 23:09:54 21° S 23:13:37 57° ESE 23:19:11 10° NE
Cosmos 1331 Rocket 4.2 23:14:27 10° NNW 23:19:36 68° ENE 23:23:34 17° SE
Cosmos 1400 Rocket 2.9 23:20:08 10° NNW 23:23:47 56° W 23:25:30 27° SSW
Cosmos 1624 Rocket 4.4 23:18:53 10° NNW 23:24:03 54° WSW 23:27:15 22° S
COSMOS 2406 3.9 23:19:55 10° NNW 23:25:31 53° NE 23:31:04 10° SE
CZ-2C R/B 3.3 23:20:37 10° NNE 23:26:12 64° ESE 23:29:38 22° S
Cosmos 1680 Rocket 3.5 23:22:43 18° SSW 23:26:36 85° WNW 23:31:50 10° NNE
Cosmos 494 Rocket 4.0 23:24:38 20° SSW 23:28:20 86° ESE 23:33:38 10° NNE
NOSS 3-2 (C) 4.1 23:23:45 10° WSW 23:28:58 52° NNW 23:35:22 10° NE
Cosmos 2056 Rocket 4.0 23:25:54 10° NW 23:30:46 45° WSW 23:33:39 22° SSW
Helios 1B rocket 3.9 23:31:35 15° SW 23:33:08 19° W 23:35:43 10° NW
NOSS 2-3 (C) 4.2 23:30:43 10° WSW 23:34:00 44° NW 23:37:45 10° NE
Cosmos 1048 Rocket 4.4 23:31:19 23° S 23:34:21 51° ESE 23:39:27 10° NNE
Cosmos 1812 2.4 23:34:22 10° NNW 23:35:32 28° WNW 23:35:32 28° WNW
Cosmos 1328 4.1 23:35:16 27° SSE 23:36:51 46° E 23:40:16 10° NNE
ARIANE 5 R/B 3.8 23:36:34 19° SSW 23:39:01 32° W 23:43:03 10° NNW
ACS3 Solar Sail 2.3 23:33:55 10° NNE 23:39:21 43° E 23:43:12 19° SSE
USA 238 DEB 3.5 23:36:16 14° SW 23:41:36 77° SE 23:48:28 10° NE
Lacrosse 4 Rocket 4.1 23:38:33 10° NNW 23:41:40 19° NNE 23:44:45 10° E
USA 238 3.5 23:36:31 15° SW 23:41:49 76° SE 23:48:41 10° NE
BREEZE-M DEB (TANK) 3.3 23:37:06 10° W 23:49:41 70° SSW 23:53:37 10° ESE
Cosmos 1933 Rocket 4.5 23:47:35 10° NNW 23:51:33 36° W 23:53:53 21° SW
ALOS 2 3.9 23:49:18 18° SW 23:51:39 29° W 23:55:29 10° NNW
Cosmos 1441 Rocket 3.3 23:54:17 26° SW 23:55:49 51° WNW 23:59:00 10° N
